LEJRGEML

Guest
Details From LEJR - Jerez
To GEML - Melilla
Flight Number -
Tags Routegen
Created
Modified
Stats Distance 185 nm / 343 km
Max Altitude 0 ft / 0 m
Waypoints 4
Social Downloads 6
Likes 0
Share VATSIM

Download

Looking for another format? Having issues loading an existing format? Contact us
Advertisement - Login to hide

Notes

None

Route

LEJR +36.60_-006.13 +35.65_-003.26 GEML

ID Type Via Altitude (ft/m) Position (lat/lon) Dist (leg/tot) Name
O LEJR APT - 0 / 0 36.73497 / -6.06481 - / 0 nm
+36.60_-006.13 DME - 0 / 0 36.60014 / -6.13041 8 / 8 nm
+35.65_-003.26 DME - 0 / 0 35.64712 / -3.25692 150 / 159 nm
O GEML APT - 0 / 0 35.28586 / -2.96118 26 / 185 nm

Altitude Profile

Advertisement - Login to hide

Weather


0- 5 10 15 20 25 30 35+ Temperature / °C

Clouds and Precipitation
Forecast for 2020-01-19 12:00 UTC. Updated 3 hours ago

Ground ~20,000 ft ~40,000 ft Winds

LEJR

Details ICAO LEJR (XRY)
Name Jerez
Region Spain
Timezone Europe/Madrid (UTC+1.0)
Stats Elevation 92 ft / 28 m (AMSL)
Location 36.744600° -6.060100°
Runways 1
Magnetic Variation 1.095° W

METAR

LEJR 191230Z 35014KT 310V010 9999 FEW017 15/09 Q1019

Decode

TAF

TAF LEJR 191100Z 1912/2012 33012KT 9999 FEW025 TX16/1914Z TN04/2006Z BECMG 1918/1920 03015KT TEMPO 1922/2012 03018G30KT

Decode

Departure Runways

ID Width Length Bearing (true/mag) Surface Threshold Overrun Markings Lighting
02 148 ft / 45 m 7,553 ft / 2,302 m 21.33° / 22.42° ASPHALT 0 ft / 0 m 0 ft / 0 m PREC-APP CENTERLINE EDGE THRESHOLD SALS
20 148 ft / 45 m 7,553 ft / 2,302 m 201.34° / 202.43° ASPHALT 0 ft / 0 m 0 ft / 0 m PREC-APP CENTERLINE EDGE THRESHOLD CALVERT

GEML

Details ICAO GEML (MLN)
Name MELILLA
Region Ceuta and Melilla
Timezone Africa/Casablanca (UTC+0.0)
Stats Elevation 155 ft / 47 m (AMSL)
Location 35.280200° -2.956550°
Runways 1
Magnetic Variation 0.227° W

METAR

GEML 191230Z 27020KT 230V320 9999 SCT025 SCT030 15/08 Q1016 WS ALL RWY

Decode

TAF

TAF GEML 190800Z 1909/2009 28022G35KT 9999 SCT020 SCT035 TX17/1914Z TN12/2007Z PROB40 TEMPO 1909/1914 28028G43KT BECMG 1917/1920 28010KT BECMG 1922/2001 04009KT PROB40 TEMPO 1922/2007 3000 SHRA SCT020CB BKN025

Decode

Destination Runways

ID Width Length Bearing (true/mag) Surface Threshold Overrun Markings Lighting
15 148 ft / 45 m 5,173 ft / 1,577 m 146.37° / 146.60° ASPHALT 978 ft / 298 m 0 ft / 0 m APP RAIL REIL-OMNI
33 148 ft / 45 m 5,173 ft / 1,577 m 326.38° / 326.60° ASPHALT 272 ft / 83 m 0 ft / 0 m APP RAIL REIL-OMNI

Popular Alternatives